Lid_Strength_Index
4 3 3 2 2 2 2 3 3 2 1 1 2 3 3 1 2 1 0 0 1 1 2 2 1 1 1 1 1 1 2 2 2 2 3 2 2 2 2 1 1 1 0
4 4 3 3 3 3 2 3 3 1 1 1 1 2 2 2 1 1 1 1 1 1 1 1 1 0 1 1 1 1 2 2 2 3 3 5 3 3 2 2 2 2 1
6 5 4 4 3 3 3 3 2 1 1 1 1 1 1 2 2 2 1 2 1 1 0 0 0 1 1 2 1 1 2 3 2 2 3 6 7 4 3 3 3 3 2
5 4 4 4 4 3 2 2 2 2 1 1 1 2 2 3 2 1 2 2 0 0 -0 0 0 1 1 1 1 1 1 2 3 2 1 2 2 5 6 3 3 3 3
5 5 4 4 3 3 2 2 2 2 2 1 1 2 2 2 1 1 1 1 0 0 0 0 0 1 1 1 1 2 2 2 2 2 2 3 2 2 4 6 5 3 3
5 5 4 4 3 3 2 2 2 3 2 1 1 2 2 2 2 2 2 2 1 1 1 1 1 1 1 2 2 2 1 1 1 1 2 3 3 4 4 4 4 4 3
6 6 5 4 4 4 3 2 2 3 2 2 2 2 2 2 2 2 2 2 2 2 2 1 0 1 1 1 1 1 1 1 1 1 2 2 2 1 2 3 4 4 2
6 6 5 4 4 4 3 3 3 3 3 2 2 2 2 2 1 1 1 1 1 1 1 1 1 1 0 1 1 1 1 1 1 1 1 1 2 2 2 3 4 5 4
6 6 5 4 4 4 3 3 3 3 2 3 2 2 2 2 3 2 1 1 1 1 1 0 1 1 1 1 1 1 1 1 1 1 1 2 2 2 3 2 2 4 6
6 6 5 4 4 3 3 3 3 3 3 3 3 2 2 2 2 2 2 1 1 1 1 1 1 2 1 1 1 1 1 2 2 2 2 2 4 3 3 3 3 3 4
8 7 5 4 3 3 3 3 2 2 2 2 2 2 2 2 2 2 2 2 1 1 1 1 1 1 1 1 2 2 2 2 3 3 3 4 3 4 4 4 4 3 3
8 7 5 4 4 4 3 3 3 3 2 2 2 2 2 2 2 2 2 1 1 1 1 1 2 2 2 2 2 3 3 3 4 4 4 5 4 5 5 5 5 4 4
8 8 7 6 6 5 5 3 3 2 2 2 2 2 2 2 2 2 2 2 2 1 2 2 2 3 3 3 3 4 4 5 5 5 5 6 6 6 6 6 7 6 5
8 8 8 8 6 5 5 5 4 3 3 3 3 3 3 3 3 3 3 3 3 3 3 3 3 4 4 4 5 5 6 6 6 6 6 7 7 7 7 6 7 7 8
10 9 8 8 7 7 6 5 5 4 3 4 4 4 4 4 4 4 4 4 4 4 5 6 6 7 7 7 7 7 7 8 8 8 7 8 9 8 7 8 9 8 8
11 10 8 8 8 7 7 6 5 5 5 6 6 5 5 6 6 5 6 6 7 6 7 8 8 8 8 7 7 7 8 8 8 9 9 9 9 8 7 7 7 8 10
10 10 9 9 8 8 8 7 7 6 6 6 6 6 7 7 7 7 7 8 8 7 7 8 9 9 9 7 6 7 8 9 9 9 9 9 8 8 8 7 8 8 8
9 9 8 8 7 7 7 7 7 7 7 7 7 6 7 7 7 7 8 8 8 8 8 9 9 9 9 7 7 8 9 9 9 9 9 9 10 9 9 9 10 10 10
7 7 6 6 7 7 6 6 6 7 8 8 8 7 7 8 8 9 9 9 9 10 10 9 8 9 10 8 7 8 9 10 10 9 9 9 10 8 8 10 12 11 11
6 6 6 5 5 5 5 6 7 7 8 7 8 7 7 7 8 8 8 9 9 9 9 10 9 9 10 8 8 8 9 10 10 10 10 8 9 7 8 10 10 11 13
6 6 6 7 7 5 5 6 7 7 6 6 7 7 8 7 7 8 8 8 9 9 10 10 9 9 9 9 8 7 9 10 10 11 11 10 8 8 8 8 10 11 11
7 7 8 8 8 7 6 8 8 7 6 6 6 6 7 7 7 9 9 9 10 10 11 10 10 9 9 7 6 6 7 7 9 10 10 10 8 9 9 9 8 8 9
8 7 8 9 9 9 8 9 9 7 6 7 7 7 7 7 7 8 8 8 8 9 10 10 10 9 9 9 6 6 6 6 9 9 9 8 8 9 9 9 9 9 12
10 9 9 10 10 9 9 9 8 7 7 7 8 8 8 8 8 8 8 8 9 9 9 9 10 9 9 9 9 8 7 6 7 7 8 8 9 9 11 11 11 12 13
10 10 10 11 11 10 10 9 8 8 8 7 7 8 8 8 8 8 8 8 8 8 8 8 8 9 9 8 7 8 8 9 8 9 11 11 12 12 13 14 13 12 12
10 10 10 11 11 11 11 10 9 9 8 8 8 8 8 8 8 8 8 7 7 7 7 7 7 8 7 7 7 7 7 7 7 11 12 12 13 13 14 13 13 13 12